User: anonymous   Login
Location: Unspecified
(0.0000°N, 0.0000°E)
Time: 19:51:28
(UTC+00:00)
Language:

UFO-8 - Orbit

View from above orbital plane
View from above orbital plane
View from above satellite
View from above satellite

Ground track
Ground track

The orbit data is extracted from the following two-line orbital elements,

1 25258U 98016A   21136.55783566 -.00000017  00000-0  00000-0 0  9993
2 25258   9.0096  31.4689 0004430  28.8268 186.6348  1.00275403 85229
Epoch (UTC): 16 May 2021 13:23:17
Eccentricity: 0.0004430
inclination: 9.0096°
perigee height: 35766 km
apogee height: 35804 km
right ascension of ascending node: 31.4689°
argument of perigee: 28.8268°
revolutions per day: 1.00275403
mean anomaly at epoch: 186.6348°
orbit number at epoch: 8522

The dashed part of the orbit path shows where the satellite is in the earth's shadow,  

DLR